sat.trackr.live / text

‹ back to catalog

STARLINK-3273

NORAD 50191 · 2021-125AM

PAYLOAD ACTIVE UNKNOWN

§ Identity

Operator
Country
US
Launch date
2021-12-18
Launch site
AFWTR
Launch vehicle
Mass (kg)
RCS (m²)

Purposes: comms

External: N2YO · Heavens-Above · Gunter

§ Orbital elements

Epoch: 2026-09-20T03:21:46.757664Z

Period
93.85 min
Inclination
53.1591°
Eccentricity
0.0001198
Mean motion
15.34396800 rev/d
Perigee alt
461.9 km
Apogee alt
463.5 km
Semi-major
6,840.8 km
B*
6.2016e-5
RAAN
93.0463°
Arg perigee
88.0180°
Mean anomaly
272.0960°
Rev number
26,598

§ Raw data

STARLINK-32731 50191U 21125AM  26263.14012451  .00001719  00000+0  62016-4 0  99902 50191  53.1591  93.0463 0001198  88.0180 272.0960 15.34396800265986

JSON: /api/v1/satellites/50191 · /tle

For live sub-satellite position, see the globe view (requires WebGL).

§ Visibility from observer

Set your observer location to see the next 7 days of passes ≥ 10°. The values pass through the URL so the page stays shareable.

No JS? Fill the form by hand. The geolocation button needs JavaScript.